sat.trackr.live / text

‹ back to catalog

STARLINK-31798

NORAD 59635 · 2024-082E

PAYLOAD ACTIVE UNKNOWN

§ Identity

Operator
Country
US
Launch date
2024-05-03
Launch site
AFETR
Launch vehicle
Mass (kg)
RCS (m²)

Purposes: comms

External: N2YO · Heavens-Above · Gunter

§ Orbital elements

Epoch: 2026-09-21T07:08:40.520544Z

Period
94.27 min
Inclination
43.0024°
Eccentricity
0.0001004
Mean motion
15.27578283 rev/d
Perigee alt
482.4 km
Apogee alt
483.7 km
Semi-major
6,861.2 km
B*
-4.7195e-5
RAAN
115.4635°
Arg perigee
264.5730°
Mean anomaly
95.5007°
Rev number
13,472

§ Raw data

STARLINK-317981 59635U 24082E   26264.29769121 -.00001560  00000+0 -47195-4 0  99942 59635  43.0024 115.4635 0001004 264.5730  95.5007 15.27578283134721

JSON: /api/v1/satellites/59635 · /tle

For live sub-satellite position, see the globe view (requires WebGL).

§ Visibility from observer

Set your observer location to see the next 7 days of passes ≥ 10°. The values pass through the URL so the page stays shareable.

No JS? Fill the form by hand. The geolocation button needs JavaScript.